20-06-2023, 00:00:00,    174,    0.0,   15.1,   0.00,   0.00, 1007.8,   70.3, -999.0
20-06-2023, 00:00:10,    175,    0.0,   15.1,   0.00,   0.00, 1007.8,   70.3, -999.0
20-06-2023, 00:00:20,    175,    0.0,   14.9,   0.00,   0.00, 1007.8,   70.5, -999.0
20-06-2023, 00:00:29,    175,    0.0,   15.0,   0.00,   0.00, 1007.8,   70.5, -999.0
20-06-2023, 00:00:40,    175,    0.0,   15.0,   0.00,   0.00, 1007.8,   70.7, -999.0
20-06-2023, 00:00:50,    175,    0.0,   15.0,   0.00,   0.00, 1007.8,   70.8, -999.0
20-06-2023, 00:01:00,    175,    0.0,   15.0,   0.00,   0.00, 1007.8,   70.8, -999.0
20-06-2023, 00:01:09,    175,    0.0,   15.0,   0.00,   0.00, 1007.8,   70.8, -999.0
20-06-2023, 00:01:20,    174,    0.0,   14.9,   0.00,   0.00, 1007.8,   70.9, -999.0
20-06-2023, 00:01:30,    175,    0.0,   15.0,   0.00,   0.00, 1007.8,   71.0, -999.0
20-06-2023, 00:01:39,    174,    0.0,   15.0,   0.00,   0.00, 1007.8,   71.1, -999.0
20-06-2023, 00:01:49,    175,    0.0,   15.0,   0.00,   0.00, 1007.8,   71.1, -999.0
20-06-2023, 00:02:00,    175,    0.0,   15.0,   0.00,   0.00, 1007.8,   71.1, -999.0
20-06-2023, 00:02:09,    175,    0.0,   14.9,   0.00,   0.00, 1007.8,   71.2, -999.0
20-06-2023, 00:02:19,    175,    0.0,   14.9,   0.00,   0.00, 1007.8,   71.2, -999.0
20-06-2023, 00:02:30,    175,    0.0,   14.9,   0.00,   0.00, 1007.8,   71.1, -999.0
20-06-2023, 00:02:39,    175,    0.0,   15.0,   0.00,   0.00, 1007.8,   71.2, -999.0
20-06-2023, 00:02:49,    175,    0.0,   14.9,   0.00,   0.00, 1007.8,   71.1, -999.0
20-06-2023, 00:02:59,    175,    0.0,   15.0,   0.00,   0.00, 1007.8,   71.2, -999.0
20-06-2023, 00:03:10,    175,    0.0,   14.9,   0.00,   0.00, 1007.8,   71.3, -999.0
20-06-2023, 00:03:19,    175,    0.0,   15.0,   0.00,   0.00, 1007.8,   71.3, -999.0
20-06-2023, 00:03:29,    175,    0.0,   14.9,   0.00,   0.00, 1007.8,   71.3, -999.0
20-06-2023, 00:03:39,    175,    0.0,   14.9,   0.00,   0.00, 1007.8,   71.4, -999.0
20-06-2023, 00:03:49,    173,    0.0,   14.9,   0.00,   0.00, 1007.8,   71.5, -999.0
20-06-2023, 00:03:59,    175,    0.0,   14.9,   0.00,   0.00, 1007.8,   71.4, -999.0
20-06-2023, 00:04:09,    175,    0.0,   14.9,   0.00,   0.00, 1007.8,   71.5, -999.0
20-06-2023, 00:04:19,    175,    0.0,   14.9,   0.00,   0.00, 1007.8,   71.5, -999.0
20-06-2023, 00:04:29,    175,    0.0,   15.0,   0.00,   0.00, 1007.8,   71.3, -999.0
20-06-2023, 00:04:39,    175,    0.0,   14.9,   0.00,   0.00, 1007.7,   71.3, -999.0
20-06-2023, 00:04:49,    175,    0.0,   15.0,   0.00,   0.00, 1007.7,   71.3, -999.0
20-06-2023, 00:04:59,    175,    0.0,   14.9,   0.00,   0.00, 1007.7,   71.3, -999.0
20-06-2023, 00:05:09,    175,    0.0,   14.9,   0.00,   0.00, 1007.7,   71.3, -999.0
20-06-2023, 00:05:19,    175,    0.0,   14.9,   0.00,   0.00, 1007.7,   71.4, -999.0
20-06-2023, 00:05:29,    169,    0.0,   14.9,   0.00,   0.00, 1007.8,   71.5, -999.0
20-06-2023, 00:05:39,    175,    0.0,   14.9,   0.00,   0.00, 1007.7,   71.5, -999.0
20-06-2023, 00:05:49,    175,    0.0,   14.9,   0.00,   0.00, 1007.7,   71.5, -999.0
20-06-2023, 00:05:59,    175,    0.0,   15.0,   0.00,   0.00, 1007.8,   71.5, -999.0
20-06-2023, 00:06:09,    172,    0.0,   15.0,   0.00,   0.00, 1007.7,   71.6, -999.0
20-06-2023, 00:06:19,    174,    0.0,   14.9,   0.00,   0.00, 1007.7,   71.5, -999.0
20-06-2023, 00:06:29,    174,    0.0,   14.9,   0.00,   0.00, 1007.7,   71.6, -999.0
20-06-2023, 00:06:39,    175,    0.0,   15.0,   0.00,   0.00, 1007.7,   71.7, -999.0
20-06-2023, 00:06:49,    175,    0.0,   14.9,   0.00,   0.00, 1007.7,   71.8, -999.0
20-06-2023, 00:06:59,    175,    0.0,   15.1,   0.00,   0.00, 1007.7,   71.7, -999.0
20-06-2023, 00:07:09,    175,    0.0,   15.0,   0.00,   0.00, 1007.7,   71.7, -999.0
20-06-2023, 00:07:19,    175,    0.0,   15.0,   0.00,   0.00, 1007.7,   71.5, -999.0
20-06-2023, 00:07:29,    174,    0.0,   15.0,   0.00,   0.00, 1007.7,   71.5, -999.0
20-06-2023, 00:07:39,    175,    0.0,   15.0,   0.00,   0.00, 1007.7,   71.5, -999.0
20-06-2023, 00:07:49,    175,    0.0,   15.0,   0.00,   0.00, 1007.7,   71.4, -999.0
20-06-2023, 00:07:59,    175,    0.0,   15.0,   0.00,   0.00, 1007.7,   71.4, -999.0
20-06-2023, 00:08:09,    175,    0.0,   15.0,   0.00,   0.00, 1007.7,   71.6, -999.0
20-06-2023, 00:08:18,    175,    0.0,   14.9,   0.00,   0.00, 1007.7,   71.5, -999.0
20-06-2023, 00:08:29,    175,    0.0,   15.0,   0.00,   0.00, 1007.7,   71.8, -999.0
20-06-2023, 00:08:39,    175,    0.0,   14.9,   0.00,   0.00, 1007.7,   71.8, -999.0
20-06-2023, 00:08:48,    175,    0.0,   14.9,   0.00,   0.00, 1007.7,   71.8, -999.0
20-06-2023, 00:08:58,    175,    0.0,   15.0,   0.00,   0.00, 1007.7,   71.8, -999.0
20-06-2023, 00:09:09,    175,    0.0,   15.0,   0.00,   0.00, 1007.7,   71.7, -999.0
20-06-2023, 00:09:19,    175,    0.0,   15.0,   0.00,   0.00, 1007.7,   71.7, -999.0
20-06-2023, 00:09:28,    175,    0.0,   15.0,   0.00,   0.00, 1007.7,   71.8, -999.0
20-06-2023, 00:09:38,    175,    0.0,   15.0,   0.00,   0.00, 1007.7,   72.0, -999.0
20-06-2023, 00:09:49,    175,    0.0,   14.9,   0.00,   0.00, 1007.7,   71.9, -999.0
20-06-2023, 00:09:58,    175,    0.0,   15.0,   0.00,   0.00, 1007.7,   71.9, -999.0
20-06-2023, 00:10:08,    175,    0.0,   15.0,   0.00,   0.00, 1007.7,   71.8, -999.0
20-06-2023, 00:10:18,    175,    0.0,   15.0,   0.00,   0.00, 1007.7,   71.9, -999.0
20-06-2023, 00:10:29,    175,    0.0,   14.9,   0.00,   0.00, 1007.6,   72.0, -999.0
20-06-2023, 00:10:38,    175,    0.0,   14.9,   0.00,   0.00, 1007.7,   71.9, -999.0
20-06-2023, 00:10:48,    175,    0.0,   15.0,   0.00,   0.00, 1007.7,   72.0, -999.0
20-06-2023, 00:10:58,    175,    0.0,   15.0,   0.00,   0.00, 1007.7,   72.0, -999.0
20-06-2023, 00:11:08,    175,    0.0,   14.9,   0.00,   0.00, 1007.7,   72.1, -999.0
20-06-2023, 00:11:18,    174,    0.0,   15.0,   0.00,   0.00, 1007.7,   71.8, -999.0
20-06-2023, 00:11:28,    175,    0.0,   15.0,   0.00,   0.00, 1007.7,   71.8, -999.0
20-06-2023, 00:11:38,    175,    0.0,   15.0,   0.00,   0.00, 1007.6,   71.9, -999.0
20-06-2023, 00:11:48,    175,    0.0,   14.9,   0.00,   0.00, 1007.7,   71.9, -999.0
20-06-2023, 00:11:58,    175,    0.0,   14.9,   0.00,   0.00, 1007.6,   71.8, -999.0
20-06-2023, 00:12:08,    175,    0.0,   15.0,   0.00,   0.00, 1007.7,   72.0, -999.0
20-06-2023, 00:12:18,    175,    0.0,   15.0,   0.00,   0.00, 1007.7,   72.0, -999.0
20-06-2023, 00:12:28,    175,    0.0,   15.0,   0.00,   0.00, 1007.7,   72.0, -999.0
20-06-2023, 00:12:38,    175,    0.0,   15.0,   0.00,   0.00, 1007.7,   72.2, -999.0
20-06-2023, 00:12:48,    175,    0.0,   15.0,   0.00,   0.00, 1007.6,   72.1, -999.0
20-06-2023, 00:12:58,    175,    0.0,   15.0,   0.00,   0.00, 1007.7,   72.0, -999.0
20-06-2023, 00:13:08,    175,    0.0,   15.0,   0.00,   0.00, 1007.7,   72.0, -999.0
20-06-2023, 00:13:18,    175,    0.0,   15.0,   0.00,   0.00, 1007.7,   72.0, -999.0
20-06-2023, 00:13:28,    174,    0.0,   14.9,   0.00,   0.00, 1007.7,   72.0, -999.0
20-06-2023, 00:13:38,    175,    0.0,   15.0,   0.00,   0.00, 1007.6,   72.0, -999.0
20-06-2023, 00:13:48,    174,    0.0,   15.0,   0.00,   0.00, 1007.7,   72.2, -999.0
20-06-2023, 00:13:58,    175,    0.0,   15.0,   0.00,   0.00, 1007.7,   72.2, -999.0
20-06-2023, 00:14:08,    175,    0.0,   15.0,   0.00,   0.00, 1007.7,   72.3, -999.0
20-06-2023, 00:14:18,    175,    0.0,   15.0,   0.00,   0.00, 1007.7,   72.2, -999.0
20-06-2023, 00:14:28,    175,    0.0,   15.0,   0.00,   0.00, 1007.7,   72.0, -999.0
20-06-2023, 00:14:38,    175,    0.0,   15.1,   0.00,   0.00, 1007.7,   72.2, -999.0
20-06-2023, 00:14:48,    175,    0.0,   15.0,   0.00,   0.00, 1007.7,   72.1, -999.0
20-06-2023, 00:14:58,    175,    0.0,   15.0,   0.00,   0.00, 1007.7,   72.1, -999.0
20-06-2023, 00:15:08,    175,    0.0,   15.0,   0.00,   0.00, 1007.7,   72.3, -999.0
20-06-2023, 00:15:18,    175,    0.0,   14.8,   0.00,   0.00, 1007.7,   72.3, -999.0
20-06-2023, 00:15:28,    175,    0.0,   14.9,   0.00,   0.00, 1007.7,   72.4, -999.0
20-06-2023, 00:15:38,    175,    0.0,   14.8,   0.00,   0.00, 1007.7,   72.6, -999.0
20-06-2023, 00:15:48,    174,    0.0,   14.9,   0.00,   0.00, 1007.7,   72.4, -999.0
20-06-2023, 00:15:58,    175,    0.0,   14.9,   0.00,   0.00, 1007.7,   72.5, -999.0
20-06-2023, 00:16:07,    175,    0.0,   14.9,   0.00,   0.00, 1007.7,   72.5, -999.0
20-06-2023, 00:16:18,    175,    0.0,   14.8,   0.00,   0.00, 1007.7,   72.6, -999.0
20-06-2023, 00:16:28,    175,    0.0,   14.9,   0.00,   0.00, 1007.7,   72.7, -999.0
20-06-2023, 00:16:37,    175,    0.0,   15.0,   0.00,   0.00, 1007.7,   72.8, -999.0
20-06-2023, 00:16:47,    175,    0.0,   14.9,   0.00,   0.00, 1007.7,   72.8, -999.0
20-06-2023, 00:16:58,    175,    0.0,   15.0,   0.00,   0.00, 1007.7,   72.6, -999.0
20-06-2023, 00:17:08,    176,    0.0,   14.9,   0.00,   0.00, 1007.7,   72.9, -999.0
20-06-2023, 00:17:17,    175,    0.0,   14.9,   0.00,   0.00, 1007.7,   72.8, -999.0
20-06-2023, 00:17:27,    175,    0.0,   14.9,   0.00,   0.00, 1007.7,   72.9, -999.0
20-06-2023, 00:17:38,    175,    0.0,   15.0,   0.00,   0.00, 1007.7,   72.9, -999.0
20-06-2023, 00:17:47,    175,    0.0,   14.9,   0.00,   0.00, 1007.7,   72.9, -999.0
20-06-2023, 00:17:57,    174,    0.0,   14.9,   0.00,   0.00, 1007.7,   72.9, -999.0
20-06-2023, 00:18:07,    175,    0.0,   14.8,   0.00,   0.00, 1007.7,   73.0, -999.0
20-06-2023, 00:18:17,    174,    0.0,   14.9,   0.00,   0.00, 1007.7,   73.0, -999.0
20-06-2023, 00:18:27,    175,    0.0,   15.0,   0.00,   0.00, 1007.7,   73.0, -999.0
20-06-2023, 00:18:37,    175,    0.0,   14.9,   0.00,   0.00, 1007.7,   73.0, -999.0
20-06-2023, 00:18:47,    175,    0.0,   14.9,   0.00,   0.00, 1007.7,   72.9, -999.0
20-06-2023, 00:18:57,    175,    0.0,   14.9,   0.00,   0.00, 1007.7,   72.9, -999.0
20-06-2023, 00:19:07,    175,    0.0,   15.0,   0.00,   0.00, 1007.7,   72.9, -999.0
20-06-2023, 00:19:17,    174,    0.0,   14.9,   0.00,   0.00, 1007.6,   72.9, -999.0
20-06-2023, 00:19:27,    175,    0.0,   14.9,   0.00,   0.00, 1007.6,   72.9, -999.0
20-06-2023, 00:19:37,    175,    0.0,   15.0,   0.00,   0.00, 1007.6,   73.2, -999.0
20-06-2023, 00:19:47,    175,    0.0,   14.9,   0.00,   0.00, 1007.6,   73.3, -999.0
20-06-2023, 00:19:57,    175,    0.0,   14.9,   0.00,   0.00, 1007.7,   73.3, -999.0
20-06-2023, 00:20:07,    175,    0.0,   15.0,   0.00,   0.00, 1007.7,   73.2, -999.0
20-06-2023, 00:20:17,    175,    0.0,   15.0,   0.00,   0.00, 1007.6,   73.2, -999.0
20-06-2023, 00:20:27,    175,    0.0,   15.0,   0.00,   0.00, 1007.7,   73.0, -999.0
20-06-2023, 00:20:37,    175,    0.0,   15.0,   0.00,   0.00, 1007.7,   73.2, -999.0
20-06-2023, 00:20:47,    175,    0.0,   14.9,   0.00,   0.00, 1007.6,   73.0, -999.0
20-06-2023, 00:20:57,    174,    0.0,   15.0,   0.00,   0.00, 1007.6,   73.1, -999.0
20-06-2023, 00:21:07,    175,    0.0,   15.0,   0.00,   0.00, 1007.6,   73.1, -999.0
20-06-2023, 00:21:17,    175,    0.0,   14.9,   0.00,   0.00, 1007.6,   73.0, -999.0
20-06-2023, 00:21:27,    175,    0.0,   15.0,   0.00,   0.00, 1007.6,   72.9, -999.0
20-06-2023, 00:21:37,    175,    0.0,   15.0,   0.00,   0.00, 1007.6,   72.8, -999.0
20-06-2023, 00:21:47,    175,    0.0,   15.0,   0.00,   0.00, 1007.6,   73.0, -999.0
20-06-2023, 00:21:57,    175,    0.0,   15.0,   0.00,   0.00, 1007.6,   72.8, -999.0
20-06-2023, 00:22:07,    174,    0.0,   15.1,   0.00,   0.00, 1007.6,   72.7, -999.0
20-06-2023, 00:22:17,    175,    0.0,   15.1,   0.00,   0.00, 1007.6,   72.7, -999.0
20-06-2023, 00:22:27,    175,    0.0,   15.1,   0.00,   0.00, 1007.6,   72.5, -999.0
20-06-2023, 00:22:37,    175,    0.0,   15.1,   0.00,   0.00, 1007.6,   72.6, -999.0
20-06-2023, 00:22:47,    175,    0.0,   15.0,   0.00,   0.00, 1007.6,   72.6, -999.0
20-06-2023, 00:22:57,    174,    0.0,   15.1,   0.00,   0.00, 1007.6,   72.6, -999.0
20-06-2023, 00:23:07,    174,    0.0,   15.0,   0.00,   0.00, 1007.6,   72.6, -999.0
20-06-2023, 00:23:16,    174,    0.0,   14.9,   0.00,   0.00, 1007.7,   72.7, -999.0
20-06-2023, 00:23:27,    175,    0.0,   15.1,   0.00,   0.00, 1007.7,   72.8, -999.0
20-06-2023, 00:23:37,    176,    0.0,   15.0,   0.00,   0.00, 1007.6,   72.7, -999.0
20-06-2023, 00:23:46,    174,    0.0,   15.1,   0.00,   0.00, 1007.6,   72.8, -999.0
20-06-2023, 00:23:57,    175,    0.0,   15.1,   0.00,   0.00, 1007.7,   72.8, -999.0
20-06-2023, 00:24:07,    175,    0.0,   15.2,   0.00,   0.00, 1007.7,   72.7, -999.0
20-06-2023, 00:24:16,    174,    0.0,   15.1,   0.00,   0.00, 1007.7,   72.5, -999.0
20-06-2023, 00:24:26,    175,    0.0,   15.1,   0.00,   0.00, 1007.7,   72.4, -999.0
20-06-2023, 00:24:37,    175,    0.0,   15.1,   0.00,   0.00, 1007.6,   72.3, -999.0
20-06-2023, 00:24:47,    175,    0.0,   15.2,   0.00,   0.00, 1007.6,   72.3, -999.0
20-06-2023, 00:24:56,    174,    0.0,   15.2,   0.00,   0.00, 1007.6,   72.3, -999.0
20-06-2023, 00:25:06,    175,    0.0,   15.2,   0.00,   0.00, 1007.7,   72.2, -999.0
20-06-2023, 00:25:17,    175,    0.0,   15.2,   0.00,   0.00, 1007.6,   72.3, -999.0
20-06-2023, 00:25:27,    175,    0.0,   15.2,   0.00,   0.00, 1007.6,   72.2, -999.0
20-06-2023, 00:25:36,    175,    0.0,   15.2,   0.00,   0.00, 1007.6,   72.2, -999.0
20-06-2023, 00:25:46,    175,    0.0,   15.2,   0.00,   0.00, 1007.6,   72.1, -999.0
20-06-2023, 00:25:57,    175,    0.0,   15.1,   0.00,   0.00, 1007.6,   71.9, -999.0
20-06-2023, 00:26:06,    174,    0.0,   15.1,   0.00,   0.00, 1007.6,   71.8, -999.0
20-06-2023, 00:26:16,    174,    0.0,   15.1,   0.00,   0.00, 1007.6,   72.0, -999.0
20-06-2023, 00:26:26,    175,    0.0,   15.1,   0.00,   0.00, 1007.6,   71.9, -999.0
20-06-2023, 00:26:36,    175,    0.0,   15.1,   0.00,   0.00, 1007.6,   72.0, -999.0
20-06-2023, 00:26:46,    175,    0.0,   15.1,   0.00,   0.00, 1007.6,   72.1, -999.0
20-06-2023, 00:26:56,    175,    0.0,   15.1,   0.00,   0.00, 1007.6,   72.4, -999.0
20-06-2023, 00:27:06,    175,    0.0,   15.1,   0.00,   0.00, 1007.6,   72.4, -999.0
20-06-2023, 00:27:16,    175,    0.0,   15.1,   0.00,   0.00, 1007.6,   72.5, -999.0
20-06-2023, 00:27:26,    175,    0.0,   15.1,   0.00,   0.00, 1007.6,   72.3, -999.0
20-06-2023, 00:27:36,    175,    0.0,   15.1,   0.00,   0.00, 1007.6,   72.2, -999.0
20-06-2023, 00:27:46,    175,    0.0,   15.1,   0.00,   0.00, 1007.6,   72.2, -999.0
20-06-2023, 00:27:56,    175,    0.0,   15.1,   0.00,   0.00, 1007.6,   72.1, -999.0
20-06-2023, 00:28:06,    175,    0.0,   15.1,   0.00,   0.00, 1007.6,   72.1, -999.0
20-06-2023, 00:28:16,    175,    0.0,   15.2,   0.00,   0.00, 1007.6,   72.1, -999.0
20-06-2023, 00:28:26,    175,    0.0,   15.1,   0.00,   0.00, 1007.6,   72.1, -999.0
20-06-2023, 00:28:36,    175,    0.0,   15.1,   0.00,   0.00, 1007.5,   72.2, -999.0
20-06-2023, 00:28:46,    174,    0.0,   15.2,   0.00,   0.00, 1007.6,   72.3, -999.0
20-06-2023, 00:28:56,    175,    0.0,   15.1,   0.00,   0.00, 1007.5,   72.2, -999.0
20-06-2023, 00:29:06,    175,    0.0,   15.1,   0.00,   0.00, 1007.5,   72.0, -999.0
20-06-2023, 00:29:16,    175,    0.0,   15.2,   0.00,   0.00, 1007.5,   72.0, -999.0
20-06-2023, 00:29:26,    174,    0.0,   15.1,   0.00,   0.00, 1007.5,   71.9, -999.0
20-06-2023, 00:29:36,    175,    0.0,   15.2,   0.00,   0.00, 1007.5,   71.9, -999.0
20-06-2023, 00:29:46,    175,    0.0,   15.2,   0.00,   0.00, 1007.5,   72.0, -999.0
20-06-2023, 00:29:56,    175,    0.0,   15.2,   0.00,   0.00, 1007.5,   72.0, -999.0
20-06-2023, 00:30:06,    175,    0.0,   15.1,   0.00,   0.00, 1007.5,   71.8, -999.0
20-06-2023, 00:30:16,    175,    0.0,   15.2,   0.00,   0.00, 1007.5,   71.7, -999.0
20-06-2023, 00:30:25,    174,    0.0,   15.2,   0.00,   0.00, 1007.5,   71.6, -999.0
20-06-2023, 00:30:36,    175,    0.0,   15.1,   0.00,   0.00, 1007.5,   71.6, -999.0
20-06-2023, 00:30:46,    175,    0.0,   15.1,   0.00,   0.00, 1007.5,   71.7, -999.0
20-06-2023, 00:30:56,    175,    0.0,   15.1,   0.00,   0.00, 1007.5,   71.8, -999.0
20-06-2023, 00:31:06,    175,    0.0,   15.1,   0.00,   0.00, 1007.5,   71.9, -999.0
20-06-2023, 00:31:16,    175,    0.0,   15.2,   0.00,   0.00, 1007.5,   71.9, -999.0
20-06-2023, 00:31:26,    175,    0.0,   15.1,   0.00,   0.00, 1007.5,   72.0, -999.0
20-06-2023, 00:31:35,    175,    0.0,   15.1,   0.00,   0.00, 1007.5,   71.9, -999.0
20-06-2023, 00:31:46,    175,    0.0,   15.1,   0.00,   0.00, 1007.5,   71.9, -999.0
20-06-2023, 00:31:56,    175,    0.0,   15.1,   0.00,   0.00, 1007.5,   71.7, -999.0
20-06-2023, 00:32:05,    175,    0.0,   15.1,   0.00,   0.00, 1007.5,   71.7, -999.0
20-06-2023, 00:32:15,    174,    0.0,   15.1,   0.00,   0.00, 1007.5,   71.9, -999.0
20-06-2023, 00:32:26,    175,    0.0,   15.1,   0.00,   0.00, 1007.5,   71.7, -999.0
20-06-2023, 00:32:35,    175,    0.0,   15.1,   0.00,   0.00, 1007.5,   72.1, -999.0
20-06-2023, 00:32:45,    175,    0.0,   15.1,   0.00,   0.00, 1007.5,   71.7, -999.0
20-06-2023, 00:32:55,    175,    0.0,   15.1,   0.00,   0.00, 1007.5,   71.8, -999.0
20-06-2023, 00:33:06,    175,    0.0,   15.0,   0.00,   0.00, 1007.5,   71.8, -999.0
20-06-2023, 00:33:15,    175,    0.0,   15.0,   0.00,   0.00, 1007.5,   71.7, -999.0
20-06-2023, 00:33:25,    175,    0.0,   15.0,   0.00,   0.00, 1007.5,   71.9, -999.0
20-06-2023, 00:33:35,    176,    0.0,   15.0,   0.00,   0.00, 1007.5,   71.9, -999.0
20-06-2023, 00:33:45,    174,    0.0,   15.1,   0.00,   0.00, 1007.5,   71.9, -999.0
20-06-2023, 00:33:55,    175,    0.0,   15.1,   0.00,   0.00, 1007.5,   71.9, -999.0
20-06-2023, 00:34:05,    175,    0.0,   15.1,   0.00,   0.00, 1007.5,   71.9, -999.0
20-06-2023, 00:34:15,    174,    0.0,   15.0,   0.00,   0.00, 1007.5,   72.0, -999.0
20-06-2023, 00:34:25,    174,    0.0,   15.0,   0.00,   0.00, 1007.5,   71.9, -999.0
20-06-2023, 00:34:35,    175,    0.0,   15.1,   0.00,   0.00, 1007.5,   72.0, -999.0
20-06-2023, 00:34:45,    175,    0.0,   15.1,   0.00,   0.00, 1007.5,   72.0, -999.0
20-06-2023, 00:34:55,    174,    0.0,   15.1,   0.00,   0.00, 1007.5,   71.9, -999.0
20-06-2023, 00:35:05,    175,    0.0,   15.1,   0.00,   0.00, 1007.5,   71.9, -999.0
20-06-2023, 00:35:15,    175,    0.0,   15.1,   0.00,   0.00, 1007.5,   71.9, -999.0
20-06-2023, 00:35:25,    175,    0.0,   15.1,   0.00,   0.00, 1007.5,   71.9, -999.0
20-06-2023, 00:35:35,    174,    0.0,   15.1,   0.00,   0.00, 1007.5,   71.9, -999.0
20-06-2023, 00:35:45,    174,    0.0,   15.1,   0.00,   0.00, 1007.5,   71.8, -999.0
20-06-2023, 00:35:55,    174,    0.0,   15.1,   0.00,   0.00, 1007.5,   71.7, -999.0
20-06-2023, 00:36:05,    175,    0.0,   15.0,   0.00,   0.00, 1007.5,   71.8, -999.0
20-06-2023, 00:36:15,    175,    0.0,   15.0,   0.00,   0.00, 1007.5,   71.6, -999.0
20-06-2023, 00:36:25,    175,    0.0,   15.1,   0.00,   0.00, 1007.5,   71.8, -999.0
20-06-2023, 00:36:35,    174,    0.0,   15.1,   0.00,   0.00, 1007.5,   72.0, -999.0
20-06-2023, 00:36:45,    174,    0.0,   15.1,   0.00,   0.00, 1007.5,   72.0, -999.0
20-06-2023, 00:36:55,    174,    0.0,   15.1,   0.00,   0.00, 1007.5,   72.1, -999.0
20-06-2023, 00:37:05,    174,    0.0,   15.1,   0.00,   0.00, 1007.5,   72.2, -999.0
20-06-2023, 00:37:15,    175,    0.0,   15.1,   0.00,   0.00, 1007.5,   72.2, -999.0
20-06-2023, 00:37:25,    174,    0.0,   15.0,   0.00,   0.00, 1007.5,   72.1, -999.0
20-06-2023, 00:37:35,    175,    0.0,   15.1,   0.00,   0.00, 1007.5,   72.2, -999.0
20-06-2023, 00:37:45,    175,    0.0,   15.0,   0.00,   0.00, 1007.5,   72.1, -999.0
20-06-2023, 00:37:55,    175,    0.0,   15.0,   0.00,   0.00, 1007.5,   72.2, -999.0
20-06-2023, 00:38:04,    175,    0.0,   15.1,   0.00,   0.00, 1007.5,   72.3, -999.0
20-06-2023, 00:38:15,    174,    0.0,   14.9,   0.00,   0.00, 1007.5,   72.2, -999.0
20-06-2023, 00:38:25,    175,    0.0,   15.0,   0.00,   0.00, 1007.5,   72.2, -999.0
20-06-2023, 00:38:35,    174,    0.0,   15.0,   0.00,   0.00, 1007.5,   72.4, -999.0
20-06-2023, 00:38:44,    174,    0.0,   15.0,   0.00,   0.00, 1007.5,   72.4, -999.0
20-06-2023, 00:38:55,    175,    0.0,   14.9,   0.00,   0.00, 1007.5,   72.5, -999.0
20-06-2023, 00:39:05,    175,    0.0,   15.0,   0.00,   0.00, 1007.5,   72.7, -999.0
20-06-2023, 00:39:14,    174,    0.0,   14.9,   0.00,   0.00, 1007.5,   72.6, -999.0
20-06-2023, 00:39:24,    175,    0.0,   14.9,   0.00,   0.00, 1007.5,   72.7, -999.0
20-06-2023, 00:39:35,    175,    0.0,   15.0,   0.00,   0.00, 1007.5,   72.7, -999.0
20-06-2023, 00:39:45,    175,    0.0,   14.9,   0.00,   0.00, 1007.5,   72.8, -999.0
20-06-2023, 00:39:54,    174,    0.0,   14.9,   0.00,   0.00, 1007.5,   72.9, -999.0
20-06-2023, 00:40:04,    175,    0.0,   14.9,   0.00,   0.00, 1007.5,   73.1, -999.0
20-06-2023, 00:40:15,    174,    0.0,   14.9,   0.00,   0.00, 1007.5,   73.1, -999.0
20-06-2023, 00:40:24,    174,    0.0,   14.9,   0.00,   0.00, 1007.5,   73.2, -999.0
20-06-2023, 00:40:34,    175,    0.0,   14.9,   0.00,   0.00, 1007.5,   73.5, -999.0
20-06-2023, 00:40:44,    176,    0.0,   14.9,   0.00,   0.00, 1007.5,   73.6, -999.0
20-06-2023, 00:40:54,    175,    0.0,   14.9,   0.00,   0.00, 1007.5,   73.5, -999.0
20-06-2023, 00:41:04,    174,    0.0,   15.0,   0.00,   0.00, 1007.5,   73.4, -999.0
20-06-2023, 00:41:14,    174,    0.0,   14.9,   0.00,   0.00, 1007.5,   73.4, -999.0
20-06-2023, 00:41:24,    175,    0.0,   15.0,   0.00,   0.00, 1007.5,   73.4, -999.0
20-06-2023, 00:41:34,    174,    0.0,   15.0,   0.00,   0.00, 1007.5,   73.3, -999.0
20-06-2023, 00:41:44,    174,    0.0,   15.0,   0.00,   0.00, 1007.5,   73.5, -999.0
20-06-2023, 00:41:54,    175,    0.0,   15.0,   0.00,   0.00, 1007.5,   73.6, -999.0
20-06-2023, 00:42:04,    174,    0.0,   15.0,   0.00,   0.00, 1007.5,   73.5, -999.0
20-06-2023, 00:42:14,    175,    0.0,   15.0,   0.00,   0.00, 1007.5,   73.4, -999.0
20-06-2023, 00:42:24,    173,    0.0,   14.9,   0.00,   0.00, 1007.5,   73.4, -999.0
20-06-2023, 00:42:34,    174,    0.0,   14.9,   0.00,   0.00, 1007.5,   73.4, -999.0
20-06-2023, 00:42:44,    174,    0.0,   14.9,   0.00,   0.00, 1007.4,   73.3, -999.0
20-06-2023, 00:42:54,    174,    0.0,   14.9,   0.00,   0.00, 1007.5,   73.4, -999.0
20-06-2023, 00:43:04,    175,    0.0,   14.9,   0.00,   0.00, 1007.5,   73.3, -999.0
20-06-2023, 00:43:14,    175,    0.0,   15.0,   0.00,   0.00, 1007.5,   73.5, -999.0
20-06-2023, 00:43:24,    174,    0.0,   14.9,   0.00,   0.00, 1007.5,   73.5, -999.0
20-06-2023, 00:43:34,    174,    0.0,   15.0,   0.00,   0.00, 1007.5,   73.4, -999.0
20-06-2023, 00:43:44,    174,    0.0,   15.0,   0.00,   0.00, 1007.5,   73.1, -999.0
20-06-2023, 00:43:54,    174,    0.0,   15.0,   0.00,   0.00, 1007.5,   73.2, -999.0
20-06-2023, 00:44:04,    174,    0.0,   15.0,   0.00,   0.00, 1007.5,   73.3, -999.0
20-06-2023, 00:44:14,    174,    0.0,   15.0,   0.00,   0.00, 1007.5,   73.3, -999.0
20-06-2023, 00:44:24,    174,    0.0,   15.0,   0.00,   0.00, 1007.4,   73.2, -999.0
20-06-2023, 00:44:34,    176,    0.0,   15.1,   0.00,   0.00, 1007.5,   73.3, -999.0
20-06-2023, 00:44:44,    174,    0.0,   14.9,   0.00,   0.00, 1007.5,   73.3, -999.0
20-06-2023, 00:44:54,    174,    0.0,   15.0,   0.00,   0.00, 1007.5,   73.1, -999.0
20-06-2023, 00:45:04,    174,    0.0,   14.9,   0.00,   0.00, 1007.5,   73.0, -999.0
20-06-2023, 00:45:14,    174,    0.0,   14.9,   0.00,   0.00, 1007.5,   73.1, -999.0
20-06-2023, 00:45:23,    174,    0.0,   14.9,   0.00,   0.00, 1007.5,   73.1, -999.0
20-06-2023, 00:45:34,    174,    0.0,   14.9,   0.00,   0.00, 1007.5,   73.2, -999.0
20-06-2023, 00:45:44,    174,    0.0,   14.9,   0.00,   0.00, 1007.5,   73.4, -999.0
20-06-2023, 00:45:54,    174,    0.0,   14.9,   0.00,   0.00, 1007.5,   73.5, -999.0
20-06-2023, 00:46:04,    175,    0.0,   14.9,   0.00,   0.00, 1007.4,   73.5, -999.0
20-06-2023, 00:46:14,    175,    0.0,   14.9,   0.00,   0.00, 1007.5,   73.5, -999.0
20-06-2023, 00:46:24,    175,    0.0,   14.9,   0.00,   0.00, 1007.4,   73.7, -999.0
20-06-2023, 00:46:33,    175,    0.0,   14.9,   0.00,   0.00, 1007.5,   73.8, -999.0
20-06-2023, 00:46:44,    174,    0.0,   14.9,   0.00,   0.00, 1007.5,   73.9, -999.0